Lid_Strength_Index
13 13 14 14 14 14 15 15 15 15 15 16 16 16 16 17 17 17 16 17 17 17 17 17 17 17 17 17 17 17 17 18 18 20 19 18 18 18 18 18 18 17 17
13 13 13 14 14 15 15 15 15 15 15 15 16 16 16 17 17 17 17 17 17 18 18 18 18 18 18 18 18 18 18 18 19 19 20 19 19 19 19 19 18 17 16
13 14 13 13 13 14 14 14 15 15 15 15 16 16 16 16 16 16 16 17 17 17 18 18 18 19 20 19 19 20 20 20 19 20 20 20 20 19 19 18 17 16 16
13 14 14 14 14 14 13 14 14 14 15 15 16 16 16 16 16 16 17 17 17 17 17 18 18 19 19 20 20 20 21 21 21 21 21 21 21 19 19 18 17 16 16
13 14 14 14 14 14 13 13 13 14 14 14 15 15 15 16 16 16 17 17 17 18 18 18 18 18 18 19 20 21 21 21 21 22 22 21 20 20 19 18 18 17 15
12 13 14 14 14 14 14 14 14 13 13 14 14 15 16 16 14 14 16 17 17 18 19 18 18 18 17 17 17 18 19 22 22 21 21 21 20 19 18 18 18 17 17
13 13 13 13 14 15 15 15 15 14 13 14 14 15 16 15 13 13 13 16 17 17 18 19 19 19 18 18 17 17 17 17 19 20 20 19 19 18 18 18 17 17 18
14 14 13 14 15 14 14 14 14 14 14 14 14 14 15 15 13 12 13 15 17 17 18 18 19 20 19 19 18 18 19 18 19 18 18 18 17 17 17 16 17 18 18
15 14 15 16 17 15 15 15 15 15 15 14 14 14 15 15 13 12 12 15 17 17 18 18 18 19 18 17 18 19 19 19 16 16 15 15 15 15 15 18 20 21 21
14 14 15 16 16 15 15 15 14 16 16 15 15 15 15 15 13 12 11 13 17 18 18 19 18 19 17 16 18 19 20 19 18 17 17 15 15 17 17 18 19 22 21
15 16 17 16 16 16 15 14 15 16 16 17 17 16 16 16 15 12 11 13 16 17 19 19 19 17 16 15 17 19 18 18 17 18 18 19 19 19 19 19 19 20 21
17 18 18 18 18 16 17 15 15 16 17 17 18 17 17 16 15 14 12 11 14 17 18 19 19 16 15 15 16 17 16 18 18 20 20 21 21 21 20 19 19 19 19
20 21 21 20 20 19 18 17 16 15 16 16 17 18 18 17 16 14 13 12 14 17 17 17 17 15 15 15 15 16 17 19 20 22 22 22 21 20 20 20 20 20 20
22 22 22 22 22 21 19 18 16 15 15 15 16 17 18 18 18 17 15 13 14 15 16 17 17 16 15 15 15 16 18 20 21 21 22 22 21 22 22 21 22 22 22
23 23 23 23 23 23 21 19 17 14 14 14 15 16 17 18 18 16 15 14 15 16 18 18 18 17 17 17 18 20 21 22 22 22 23 23 23 23 23 22 22 23 24
24 24 24 24 23 23 23 22 17 15 12 11 11 13 15 14 14 14 12 11 13 15 18 19 18 18 21 20 22 22 22 23 22 23 23 24 24 23 23 23 23 23 24
25 24 24 24 24 24 23 22 22 17 12 10 10 10 12 13 13 13 12 12 12 14 18 19 18 19 20 21 22 23 23 23 22 23 24 24 24 24 24 24 24 24 24
26 25 25 25 25 24 23 22 20 19 17 15 12 11 10 11 11 12 12 11 14 15 18 18 19 19 20 22 22 23 23 24 24 24 24 25 25 25 26 25 24 25 24
26 26 26 25 25 24 23 22 20 19 18 14 15 13 12 9 9 11 11 13 15 16 19 19 20 20 20 21 21 21 22 23 23 24 25 26 27 27 27 25 25 24 24
25 25 24 24 24 24 23 22 21 19 17 15 15 14 13 12 11 13 13 14 14 15 19 20 20 20 21 22 23 24 25 25 26 27 27 28 28 27 26 26 25 24 24
24 24 23 23 24 23 23 22 20 18 16 16 15 14 11 12 12 13 13 14 17 19 19 21 21 23 23 24 25 26 26 26 27 27 27 27 27 27 26 25 24 24 24
23 22 21 21 21 22 22 20 18 16 16 16 15 14 11 11 12 13 14 18 18 19 20 22 24 24 24 25 25 26 26 27 26 26 26 26 26 26 26 25 25 23 23
23 23 21 20 19 18 20 18 16 16 16 16 15 14 14 16 18 19 20 21 21 22 22 23 25 26 25 25 25 24 25 25 25 26 26 26 27 26 27 26 25 24 22
24 23 22 21 20 20 19 19 18 17 19 20 20 19 20 20 21 22 22 22 23 23 22 23 24 25 27 26 26 26 25 26 26 26 26 26 27 27 26 26 24 23 21
24 24 23 23 22 22 22 22 22 22 22 22 22 22 22 22 23 23 23 23 23 23 24 24 24 25 26 27 27 28 28 26 29 28 29 28 27 26 26 25 22 21 20
25 25 25 24 24 24 24 24 24 23 23 23 23 23 23 24 24 24 24 24 24 25 25 25 26 26 27 27 28 28 28 27 27 26 28 27 25 25 24 22 21 20 20